Location: Casilda
(33.0440°S, 61.1680°W)
Time: 10:28:29
(UTC-03:00)

Tiangong 2 - Visible Passes

Search period start: 16 November 2018 00:00
Search period end: 26 November 2018 00:00
Orbit: 382 x 393 km, 42.8° (Epoch: 15 November)

Date Brightness Start Highest point End Pass type
(mag) Time Alt. Az. Time Alt. Az. Time Alt. Az.
16 Nov 3.6 03:24:02 22° SSE 03:24:02 22° SSE 03:26:14 10° ESE visible
16 Nov 1.0 04:57:25 10° WSW 05:00:37 68° NNW 05:03:48 10° NE visible
17 Nov 1.5 04:01:42 56° S 04:02:03 61° SSE 04:05:14 10° ENE visible
17 Nov 2.9 20:32:48 10° N 20:34:38 14° NE 20:34:52 14° NE visible
18 Nov 1.9 04:40:04 30° NW 04:40:12 30° NW 04:43:02 10° NNE visible
18 Nov 1.0 21:09:26 10° NW 21:12:35 64° NNE 21:13:40 36° E visible
19 Nov 2.7 21:47:54 10° W 21:50:52 34° SSW 21:51:50 27° SSE visible
20 Nov 1.6 20:49:03 10° WNW 20:52:12 60° SSW 20:55:23 10° SE visible
20 Nov 4.0 22:27:11 10° WSW 22:29:19 17° SSW 22:29:19 17° SSW visible
21 Nov 3.6 21:28:01 10° WSW 21:30:38 23° SSW 21:33:17 10° SE visible
22 Nov 2.9 20:28:56 10° W 20:31:54 33° SSW 20:34:51 10° SE visible
22 Nov 4.0 22:07:23 10° SW 22:09:20 15° S 22:10:42 12° SSE visible
23 Nov 3.9 21:08:13 10° SW 21:10:28 17° S 21:12:42 10° SSE visible
23 Nov 4.3 22:46:04 10° SSW 22:47:09 14° SSW 22:47:09 14° SSW visible
24 Nov 4.0 21:47:21 10° SW 21:49:12 14° S 21:51:04 10° SE visible
25 Nov 4.0 20:48:22 10° SW 20:50:18 15° S 20:52:15 10° SSE visible
25 Nov 3.8 22:25:33 10° SW 22:27:27 18° S 22:27:27 18° S visible
